N8QF-1 Weather Reports


Display with metric or nautical units.
time (UTC)temp
F
wind
direction
speed
MPH
gust
MPH
rain 1hr
in
rain 24hr
in
rain mn
in
humidity
%
barometer
mb
20260904195830 95 285 8.0 14.0 0.00 0.00 0.00 41 1014.8
20260904195329 95 291 8.0 14.0 0.00 0.00 0.00 39 1014.4
20260904194829 95 242 2.0 10.0 0.00 0.00 0.00 41 1014.4
20260904194328 94 255 8.0 12.0 0.00 0.00 0.00 41 1014.5
20260904193828 94 238 8.0 14.0 0.00 0.00 0.00 42 1014.7
20260904193327 94 277 10.0 15.0 0.00 0.00 0.00 40 1014.7
20260904192827 94 277 7.0 17.0 0.00 0.00 0.00 41 1014.7
20260904192326 94 210 10.0 16.0 0.00 0.00 0.00 41 1014.5
20260904191826 95 214 8.0 17.0 0.00 0.00 0.00 41 1014.4
20260904191325 94 250 5.0 10.0 0.00 0.00 0.00 42 1014.5
20260904190824 94 245 5.0 14.0 0.00 0.00 0.00 41 1014.6
20260904190323 94 283 6.0 13.0 0.00 0.00 0.00 41 1014.6
20260904185823 94 302 6.0 14.0 0.00 0.00 0.00 40 1014.8
20260904185322 94 259 11.0 13.0 0.00 0.00 0.00 41 1014.8
20260904184821 94 260 8.0 13.0 0.00 0.00 0.00 41 1015.0
20260904184321 93 318 7.0 13.0 0.00 0.00 0.00 43 1014.9
20260904183820 94 298 6.0 12.0 0.00 0.00 0.00 42 1015.0
20260904183320 94 238 5.0 16.0 0.00 0.00 0.00 42 1015.0
20260904182818 94 253 4.0 16.0 0.00 0.00 0.00 42 1015.2
20260904182318 94 243 11.0 15.0 0.00 0.00 0.00 42 1015.2
20260904181816 94 280 9.0 14.0 0.00 0.00 0.00 43 1015.2
20260904180813 93 325 8.0 15.0 0.00 0.00 0.00 44 1015.4
20260904180313 93 274 7.0 11.0 0.00 0.00 0.00 43 1015.6
20260904175812 93 264 6.0 14.0 0.00 0.00 0.00 43 1015.7
20260904175312 93 305 6.0 15.0 0.00 0.00 0.00 43 1015.7
20260904174811 93 295 5.0 14.0 0.00 0.00 0.00 44 1015.9
20260904173810 93 316 8.0 14.0 0.00 0.00 0.00 44 1016.1
20260904173310 93 253 10.0 17.0 0.00 0.00 0.00 44 1016.2
20260904172308 93 281 10.0 18.0 0.00 0.00 0.00 43 1016.2
20260904171808 93 239 10.0 15.0 0.00 0.00 0.00 43 1016.2
20260904171308 93 281 9.0 17.0 0.00 0.00 0.00 44 1016.3
20260904170807 92 323 8.0 17.0 0.00 0.00 0.00 44 1016.2
20260904170306 93 262 10.0 16.0 0.00 0.00 0.00 44 1016.3
20260904165806 92 298 8.0 14.0 0.00 0.00 0.00 45 1016.2
20260904165305 92 267 11.0 15.0 0.00 0.00 0.00 45 1016.3
20260904164805 92 304 10.0 14.0 0.00 0.00 0.00 45 1016.2
20260904164304 92 245 8.0 14.0 0.00 0.00 0.00 45 1016.3
20260904163804 92 252 8.0 17.0 0.00 0.00 0.00 45 1016.3
20260904163303 92 293 8.0 13.0 0.00 0.00 0.00 45 1016.3
20260904162803 92 283 7.0 16.0 0.00 0.00 0.00 45 1016.4
20260904162305 92 288 6.0 12.0 0.00 0.00 0.00 45 1016.4
20260904161802 92 4 9.0 14.0 0.00 0.00 0.00 46 1016.5
20260904161301 91 274 9.0 16.0 0.00 0.00 0.00 47 1016.4
20260904160801 91 260 9.0 18.0 0.00 0.00 0.00 47 1016.5
20260904160300 91 255 7.0 12.0 0.00 0.00 0.00 47 1016.6
20260904155800 91 304 7.0 12.0 0.00 0.00 0.00 48 1016.5
20260904155300 91 270 9.0 12.0 0.00 0.00 0.00 49 1016.5
20260904154257 90 281 9.0 15.0 0.00 0.00 0.00 50 1016.6
20260904153756 90 242 9.0 14.0 0.00 0.00 0.00 50 1016.7
20260904153256 90 239 8.0 13.0 0.00 0.00 0.00 50 1016.6
20260904152755 90 253 5.0 9.0 0.00 0.00 0.00 50 1016.5
20260904152255 90 278 4.0 10.0 0.00 0.00 0.00 53 1016.5
20260904151754 89 232 6.0 9.0 0.00 0.00 0.00 53 1016.5
20260904151254 89 263 8.0 11.0 0.00 0.00 0.00 53 1016.4
20260904150753 89 277 4.0 10.0 0.00 0.00 0.00 55 1016.5
20260904150253 88 245 7.0 10.0 0.00 0.00 0.00 55 1016.4
20260904145752 88 252 4.0 11.0 0.00 0.00 0.00 55 1016.4
20260904145249 88 245 4.0 10.0 0.00 0.00 0.00 55 1016.4
20260904144748 88 114 4.0 11.0 0.00 0.00 0.00 56 1016.5
20260904144248 87 260 6.0 9.0 0.00 0.00 0.00 57 1016.4
20260904143747 87 240 6.0 9.0 0.00 0.00 0.00 57 1016.3
20260904143247 86 236 8.0 10.0 0.00 0.00 0.00 58 1016.3
20260904142746 86 245 5.0 9.0 0.00 0.00 0.00 59 1016.2
20260904142246 86 249 7.0 10.0 0.00 0.00 0.00 60 1016.2
20260904141745 85 283 6.0 7.0 0.00 0.00 0.00 61 1016.2
20260904141246 85 210 6.0 7.0 0.00 0.00 0.00 62 1016.3
20260904140744 85 238 3.0 6.0 0.00 0.00 0.00 62 1016.3
20260904140243 84 281 3.0 7.0 0.00 0.00 0.00 63 1016.3
20260904135743 84 309 1.0 7.0 0.00 0.00 0.00 64 1016.2
20260904135242 84 212 5.0 8.0 0.00 0.00 0.00 63 1016.2
20260904134742 83 240 4.0 7.0 0.00 0.00 0.00 63 1016.2
20260904134240 83 229 5.0 9.0 0.00 0.00 0.00 64 1016.3
20260904133739 83 236 2.0 7.0 0.00 0.00 0.00 65 1016.3
20260904133238 83 245 4.0 8.0 0.00 0.00 0.00 65 1016.4
20260904132738 82 198 2.0 4.0 0.00 0.00 0.00 68 1016.3
20260904132237 82 207 2.0 5.0 0.00 0.00 0.00 70 1016.3
20260904131737 82 176 2.0 5.0 0.00 0.00 0.00 71 1016.4
20260904131236 82 174 2.0 4.0 0.00 0.00 0.00 71 1016.3
20260904130235 81 188 3.0 5.0 0.00 0.00 0.00 72 1016.4
20260904125731 81 150 3.0 4.0 0.00 0.00 0.00 74 1016.4
20260904125231 80 201 2.0 3.0 0.00 0.00 0.00 76 1016.5
20260904124229 80 180 0.0 1.0 0.00 0.00 0.00 78 1016.4
20260904123729 79 186 0.0 0.0 0.00 0.00 0.00 79 1016.4
20260904123228 79 186 0.0 0.0 0.00 0.00 0.00 80 1016.4
20260904122727 79 186 0.0 0.0 0.00 0.00 0.00 81 1016.3
20260904122227 79 186 0.0 1.0 0.00 0.00 0.00 81 1016.2
20260904121726 78 186 1.0 2.0 0.00 0.00 0.00 82 1016.3
20260904120725 78 93 0.0 0.0 0.00 0.00 0.00 84 1016.1
20260904120225 77 93 0.0 0.0 0.00 0.00 0.00 85 1016.2
20260904115724 77 93 0.0 0.0 0.00 0.00 0.00 85 1016.1
20260904115224 76 93 0.0 0.0 0.00 0.00 0.00 86 1016.0
20260904114223 76 93 0.0 0.0 0.00 0.00 0.00 86 1015.8
20260904113722 76 93 0.0 0.0 0.00 0.00 0.00 86 1015.8
20260904113221 76 93 0.0 0.0 0.00 0.00 0.00 86 1015.8
20260904112720 76 93 0.0 0.0 0.00 0.00 0.00 86 1015.7
20260904112220 76 93 0.0 0.0 0.00 0.00 0.00 86 1015.6
20260904111719 76 93 0.0 0.0 0.00 0.00 0.00 85 1015.6
20260904111219 76 93 0.0 0.0 0.00 0.00 0.00 85 1015.6
20260904110717 76 93 0.0 0.0 0.00 0.00 0.00 85 1015.5
20260904110217 76 93 0.0 0.0 0.00 0.00 0.00 85 1015.4
20260904105716 76 93 0.0 0.0 0.00 0.00 0.00 85 1015.2
20260904105215 76 93 0.0 0.0 0.00 0.00 0.00 85 1015.1
20260904104715 76 93 0.0 0.0 0.00 0.00 0.00 85 1015.0
20260904104214 76 93 0.0 0.0 0.00 0.00 0.00 84 1015.0
20260904103714 76 93 0.0 0.0 0.00 0.00 0.00 85 1014.9
20260904103213 76 93 0.0 0.0 0.00 0.00 0.00 85 1014.9
20260904102713 76 93 0.0 0.0 0.00 0.00 0.00 84 1014.9
20260904102212 76 93 0.0 0.0 0.00 0.00 0.00 84 1015.0
20260904101712 76 93 0.0 0.0 0.00 0.00 0.00 84 1015.0
20260904101210 76 93 0.0 0.0 0.00 0.00 0.00 84 1015.0
20260904100710 76 93 0.0 0.0 0.00 0.00 0.00 84 1015.0
20260904100209 76 93 0.0 0.0 0.00 0.00 0.00 84 1015.1
20260904095708 76 93 0.0 0.0 0.00 0.00 0.00 84 1015.2
20260904095207 77 93 0.0 0.0 0.00 0.00 0.00 83 1015.0
20260904094707 77 93 0.0 0.0 0.00 0.00 0.00 83 1015.1
20260904094206 77 93 0.0 0.0 0.00 0.00 0.00 83 1015.1
20260904093706 77 93 0.0 0.0 0.00 0.00 0.00 83 1015.1
20260904093205 77 93 0.0 0.0 0.00 0.00 0.00 83 1015.0
20260904092705 77 93 0.0 0.0 0.00 0.00 0.00 83 1015.0
20260904092204 77 93 0.0 0.0 0.00 0.00 0.00 83 1015.0
20260904091703 77 93 0.0 0.0 0.00 0.00 0.00 82 1015.0
20260904090702 77 93 0.0 0.0 0.00 0.00 0.00 82 1015.2
20260904090201 77 93 0.0 0.0 0.00 0.00 0.00 82 1015.2
20260904085700 77 93 0.0 0.0 0.00 0.00 0.00 82 1015.2
20260904085200 77 93 0.0 0.0 0.00 0.00 0.00 81 1015.2
20260904084659 77 93 0.0 0.0 0.00 0.00 0.00 81 1015.2
20260904084159 78 93 0.0 3.0 0.00 0.00 0.00 81 1015.2
20260904083658 78 93 0.0 3.0 0.00 0.00 0.00 81 1015.2
20260904083158 78 120 1.0 3.0 0.00 0.00 0.00 80 1015.1
20260904082657 78 158 1.0 0.0 0.00 0.00 0.00 80 1015.2
20260904082157 78 333 0.0 0.0 0.00 0.00 0.00 80 1015.2
20260904081656 78 333 0.0 0.0 0.00 0.00 0.00 79 1015.2
20260904081156 78 333 0.0 0.0 0.00 0.00 0.00 79 1015.1
20260904080655 78 333 0.0 0.0 0.00 0.00 0.00 79 1015.2
20260904080155 78 333 0.0 0.0 0.00 0.00 0.00 79 1015.2
20260904075654 78 333 0.0 0.0 0.00 0.00 0.00 79 1015.3
20260904075154 78 333 0.0 0.0 0.00 0.00 0.00 79 1015.2
20260904074653 78 333 0.0 0.0 0.00 0.00 0.00 79 1015.2
20260904074153 78 333 0.0 0.0 0.00 0.00 0.00 79 1015.2
20260904073652 78 333 0.0 0.0 0.00 0.00 0.00 79 1015.3
20260904073151 78 333 0.0 0.0 0.00 0.00 0.00 79 1015.4
20260904072651 78 333 0.0 0.0 0.00 0.00 0.00 79 1015.4
20260904072150 78 333 0.0 0.0 0.00 0.00 0.00 79 1015.4
20260904071650 78 333 0.0 0.0 0.00 0.00 0.00 79 1015.4
20260904071149 78 333 0.0 0.0 0.00 0.00 0.00 79 1015.5
20260904070649 78 333 0.0 0.0 0.00 0.00 0.00 79 1015.6
20260904070147 78 333 0.0 0.0 0.00 0.00 0.00 79 1015.7
20260904065647 78 333 0.0 0.0 0.00 0.00 0.00 79 1015.7
20260904065146 78 333 0.0 0.0 0.00 0.00 0.00 78 1015.7
20260904064646 78 333 0.0 0.0 0.00 0.00 0.00 78 1015.8
20260904064145 79 333 0.0 0.0 0.00 0.00 0.00 78 1015.8
20260904063645 79 333 0.0 0.0 0.00 0.00 0.00 78 1015.9
20260904063144 79 333 0.0 0.0 0.00 0.00 0.00 77 1015.9
20260904062644 79 333 0.0 0.0 0.00 0.00 0.00 77 1015.9
20260904062143 79 333 0.0 0.0 0.00 0.00 0.00 77 1015.9
20260904061643 79 333 0.0 0.0 0.00 0.00 0.00 77 1016.0
20260904061142 79 333 0.0 0.0 0.00 0.00 0.00 76 1016.0
20260904060642 79 333 0.0 0.0 0.00 0.00 0.00 76 1016.0
20260904060141 79 333 0.0 0.0 0.00 0.00 0.00 76 1015.9
20260904055641 80 333 0.0 0.0 0.00 0.00 0.00 75 1016.0
20260904055140 80 333 0.0 0.0 0.00 0.00 0.00 75 1016.0
20260904054639 80 333 0.0 0.0 0.00 0.00 0.00 74 1016.1
20260904054138 80 333 0.0 0.0 0.00 0.00 0.00 74 1016.0
20260904053636 80 333 0.0 2.0 0.00 0.00 0.00 73 1016.0
20260904053133 80 333 0.0 3.0 0.00 0.00 0.00 73 1016.0
20260904052632 81 62 2.0 0.0 0.00 0.00 0.00 73 1016.0
20260904052132 80 333 0.0 5.0 0.00 0.00 0.00 73 1016.1
20260904051631 80 333 1.0 4.0 0.00 0.00 0.00 73 1016.0
20260904051131 81 357 1.0 0.0 0.00 0.00 0.00 74 1016.0
20260904050630 81 180 0.0 2.0 0.00 0.00 0.00 73 1015.9
20260904045629 81 18 0.0 0.0 0.00 0.00 0.00 72 1016.0
20260904045129 81 18 0.0 0.0 0.00 0.00 0.00 72 1016.0
20260904044628 81 18 0.0 0.0 0.00 0.00 0.00 72 1016.0
20260904044128 81 18 0.0 0.0 0.00 0.00 0.00 72 1015.9
20260904043625 81 18 0.0 0.0 0.00 0.00 0.00 71 1016.0
20260904043125 81 18 0.0 0.0 0.00 0.00 0.00 72 1016.1
20260904042624 81 18 0.0 0.0 0.00 0.00 0.00 72 1016.0
20260904042124 81 18 0.0 0.0 0.00 0.00 0.00 72 1016.1
20260904041623 81 18 0.0 0.0 0.00 0.00 0.00 72 1016.0
20260904041123 81 18 0.0 1.0 0.00 0.00 0.00 72 1016.0
20260904040622 81 18 0.0 3.0 0.00 0.00 0.00 71 1016.0
20260904040122 81 18 1.0 2.0 0.00 0.00 0.00 71 1016.0
20260904035621 81 38 0.0 0.0 0.00 0.00 0.00 71 1015.8
20260904035120 81 25 0.0 0.0 0.00 0.00 0.00 71 1015.8
20260904034620 81 25 0.0 0.0 0.00 0.00 0.00 70 1015.7
20260904034119 81 25 0.0 0.0 0.00 0.00 0.00 70 1015.8
20260904033619 81 25 0.0 1.0 0.00 0.00 0.00 70 1015.7
20260904033118 81 25 0.0 1.0 0.00 0.00 0.00 70 1015.8
20260904032618 81 18 1.0 0.0 0.00 0.00 0.00 69 1015.7
20260904032117 82 7 0.0 0.0 0.00 0.00 0.00 69 1015.6
20260904031617 82 7 0.0 0.0 0.00 0.00 0.00 68 1015.7
20260904031116 82 7 0.0 0.0 0.00 0.00 0.00 68 1015.8
20260904030616 82 7 0.0 0.0 0.00 0.00 0.00 68 1015.6
20260904030115 82 7 0.0 0.0 0.00 0.00 0.00 68 1015.8
20260904025615 82 7 0.0 0.0 0.00 0.00 0.00 68 1015.8
20260904025113 82 7 0.0 0.0 0.00 0.00 0.00 68 1015.8
20260904024613 82 7 0.0 0.0 0.00 0.00 0.00 68 1015.9
20260904024112 82 7 0.0 2.0 0.00 0.00 0.00 67 1015.9
20260904023612 83 7 0.0 2.0 0.00 0.00 0.00 67 1016.0
20260904023111 83 20 1.0 2.0 0.00 0.00 0.00 67 1015.7
20260904022610 83 24 0.0 0.0 0.00 0.00 0.00 66 1015.8
20260904022110 83 24 0.0 0.0 0.00 0.00 0.00 66 1015.7
20260904021610 83 24 0.0 0.0 0.00 0.00 0.00 65 1015.6
20260904021109 84 35 0.0 0.0 0.00 0.00 0.00 65 1015.7
20260904020608 84 326 0.0 0.0 0.00 0.00 0.00 64 1015.6
20260904015607 84 326 0.0 0.0 0.00 0.00 0.00 63 1015.7
20260904015107 84 326 0.0 0.0 0.00 0.00 0.00 63 1015.7
20260904014606 84 326 0.0 0.0 0.00 0.00 0.00 63 1015.8
20260904014106 84 326 0.0 0.0 0.00 0.00 0.00 63 1015.9
20260904013605 85 326 0.0 0.0 0.00 0.00 0.00 62 1015.8
20260904013105 85 326 0.0 0.0 0.00 0.00 0.00 62 1015.7
20260904012604 85 326 0.0 0.0 0.00 0.00 0.00 62 1015.8
20260904012104 85 326 0.0 0.0 0.00 0.00 0.00 61 1015.8
20260904011603 85 326 0.0 0.0 0.00 0.00 0.00 61 1015.7
20260904011103 85 326 0.0 0.0 0.00 0.00 0.00 61 1015.8
20260904010602 86 326 0.0 0.0 0.00 0.00 0.00 61 1015.8
20260904005601 87 326 0.0 0.0 0.00 0.00 0.00 59 1015.6
20260904005100 87 326 0.0 0.0 0.00 0.00 0.00 57 1015.6
20260904004600 88 326 0.0 0.0 0.00 0.00 0.00 56 1015.6
20260904004059 88 326 0.0 0.0 0.00 0.00 0.00 55 1015.4
20260904003559 89 326 0.0 0.0 0.00 0.00 0.00 54 1015.5
20260904003058 89 326 0.0 0.0 0.00 0.00 0.00 53 1015.4
20260904002558 89 326 0.0 0.0 0.00 0.00 0.00 52 1015.4
20260904002057 90 326 0.0 1.0 0.00 0.00 0.00 51 1015.3
20260904001557 91 295 1.0 2.0 0.00 0.00 0.00 49 1015.4
20260904000055 91 228 2.0 4.0 0.00 0.00 0.00 47 1015.1
20260903235554 92 245 2.0 5.0 0.00 0.00 0.00 47 1015.2
20260903235053 92 302 2.0 7.0 0.00 0.00 0.00 47 1015.2
20260903234553 92 283 5.0 8.0 0.00 0.00 0.00 46 1015.1
20260903234053 92 263 4.0 8.0 0.00 0.00 0.00 46 1015.3
20260903233552 92 281 3.0 9.0 0.00 0.00 0.00 46 1015.2
20260903233049 92 276 6.0 11.0 0.00 0.00 0.00 46 1015.1
20260903232549 92 293 7.0 10.0 0.00 0.00 0.00 45 1015.1
20260903231548 92 257 5.0 9.0 0.00 0.00 0.00 44 1015.1
20260903231047 93 246 6.0 9.0 0.00 0.00 0.00 44 1015.0
20260903230547 93 305 4.0 8.0 0.00 0.00 0.00 44 1015.0
20260903230046 93 252 5.0 12.0 0.00 0.00 0.00 44 1014.9
20260903225545 93 280 6.0 11.0 0.00 0.00 0.00 44 1015.0
20260903224544 93 274 7.0 10.0 0.00 0.00 0.00 43 1015.0
20260903224044 93 278 7.0 13.0 0.00 0.00 0.00 43 1015.0
20260903223543 93 270 8.0 11.0 0.00 0.00 0.00 42 1014.9
20260903223043 93 315 5.0 13.0 0.00 0.00 0.00 42 1014.9
20260903222542 93 266 8.0 19.0 0.00 0.00 0.00 41 1014.9
20260903222042 93 141 7.0 15.0 0.00 0.00 0.00 42 1014.8
20260903221541 93 118 9.0 14.0 0.00 0.00 0.00 41 1014.7
20260903221041 93 242 7.0 13.0 0.00 0.00 0.00 41 1014.8
20260903220040 93 248 10.0 15.0 0.00 0.00 0.00 41 1014.5
20260903215539 93 235 8.0 14.0 0.00 0.00 0.00 41 1014.5
20260903215039 94 256 10.0 17.0 0.00 0.00 0.00 40 1014.4
20260903214538 94 243 7.0 15.0 0.00 0.00 0.00 40 1014.3
20260903214038 94 267 10.0 14.0 0.00 0.00 0.00 39 1014.3
20260903213537 94 255 8.0 13.0 0.00 0.00 0.00 40 1014.1
20260903213037 94 232 9.0 14.0 0.00 0.00 0.00 41 1014.1
20260903212536 94 263 7.0 16.0 0.00 0.00 0.00 40 1014.0
20260903212035 94 240 9.0 12.0 0.00 0.00 0.00 39 1014.1
20260903211535 94 245 7.0 14.0 0.00 0.00 0.00 40 1014.0
20260903211035 94 277 7.0 16.0 0.00 0.00 0.00 39 1014.0
20260903210534 94 260 11.0 11.0 0.00 0.00 0.00 39 1014.0
20260903210033 94 221 7.0 12.0 0.00 0.00 0.00 41 1014.0
20260903205533 94 203 6.0 14.0 0.00 0.00 0.00 40 1014.2
20260903205032 94 243 9.0 16.0 0.00 0.00 0.00 39 1014.3
20260903204531 94 242 8.0 17.0 0.00 0.00 0.00 40 1014.5
20260903204030 94 231 10.0 17.0 0.00 0.00 0.00 39 1014.5
20260903203530 94 280 10.0 16.0 0.00 0.00 0.00 39 1014.6
20260903203029 94 226 8.0 16.0 0.00 0.00 0.00 40 1014.6
20260903202529 93 243 12.0 18.0 0.00 0.00 0.00 39 1014.8
20260903202028 94 228 8.0 15.0 0.00 0.00 0.00 40 1014.9
20260903201528 94 267 11.0 15.0 0.00 0.00 0.00 39 1014.9
20260903201027 94 274 6.0 17.0 0.00 0.00 0.00 40 1015.0
20260903200527 94 267 10.0 16.0 0.00 0.00 0.00 40 1015.1
20260903200026 94 252 9.0 14.0 0.00 0.00 0.00 39 1015.2